Probability
0 0 0 0 0 0 0 0 0 0 0 0 0 0 0 0 0 0 0 0 0 0 0 3 12 23 28 27 26 24 21 18 17 16 11 7 5 2 0 0 0 0 0 0
0 0 0 0 0 0 0 0 0 0 0 0 0 0 0 0 0 0 0 0 0 0 0 2 8 18 24 25 24 22 19 16 15 14 11 8 6 3 1 0 0 0 0 0
0 0 0 0 0 0 0 0 0 0 0 0 0 0 0 0 0 0 0 0 0 0 0 0 3 9 15 20 22 20 16 13 12 13 12 9 7 4 1 0 0 0 0 0
0 0 0 0 0 0 0 0 0 0 0 0 0 0 0 0 0 0 0 0 0 0 0 0 1 2 6 13 18 19 16 12 11 12 11 9 7 4 1 0 0 0 0 0
0 0 0 0 0 0 0 0 0 0 0 0 0 0 0 0 0 0 0 0 0 0 0 0 0 0 2 8 13 17 17 13 10 10 10 8 6 3 1 0 0 0 0 0
0 0 0 0 0 0 0 0 0 0 0 0 0 0 0 0 0 0 0 0 0 0 0 0 0 0 1 4 9 13 15 14 10 9 9 7 4 2 0 0 0 0 0 0
0 0 0 0 0 0 0 0 0 0 0 0 0 0 0 0 0 0 0 0 0 0 0 0 0 0 0 2 6 9 12 13 11 9 9 7 3 1 0 0 0 0 0 0
0 0 0 0 0 0 0 0 0 0 0 0 0 0 0 0 0 0 0 0 0 0 0 0 0 0 0 0 3 7 10 12 10 9 9 8 4 1 0 0 0 0 0 0
0 0 0 0 0 0 0 0 0 0 0 0 0 0 0 0 0 0 0 0 0 0 0 0 0 0 0 0 1 4 9 11 10 9 9 9 6 2 1 1 1 0 0 0
0 0 0 0 0 0 0 0 0 0 0 0 0 0 0 0 0 0 0 0 0 0 0 0 0 0 0 0 0 3 7 11 11 9 8 9 8 3 1 2 1 0 0 0
0 0 0 0 0 0 0 0 0 0 0 0 0 0 0 0 0 0 0 0 0 0 0 0 0 0 0 0 0 2 6 10 11 10 9 9 9 5 2 2 1 0 0 0
0 0 0 0 0 0 0 0 0 0 0 0 0 0 0 0 0 0 0 0 0 0 0 0 0 0 0 0 0 1 4 8 10 10 10 10 9 7 4 3 2 1 0 0
0 0 0 0 0 0 0 0 0 0 0 0 0 0 0 0 0 0 0 0 0 0 0 0 0 0 0 0 0 0 2 5 8 10 10 10 9 8 5 3 3 2 1 0
0 0 0 0 0 0 0 0 0 0 0 0 0 0 0 0 0 0 0 0 0 0 0 0 0 0 0 0 0 0 1 3 6 9 10 9 10 9 7 5 4 3 2 1
0 0 0 0 0 0 0 0 0 0 0 0 0 0 0 0 0 0 0 0 0 0 0 0 0 0 0 0 0 0 0 1 4 7 9 9 9 9 8 7 6 4 3 3
0 0 0 0 0 0 0 0 0 0 0 0 0 0 0 0 0 0 0 0 0 0 0 0 0 0 0 0 0 0 0 1 3 5 7 6 7 8 7 7 6 4 3 3
0 0 0 0 0 0 0 0 0 0 0 0 0 0 0 0 0 0 0 0 0 0 0 0 0 0 0 0 0 0 0 0 1 3 4 3 4 4 4 4 5 4 3 2
0 0 0 0 0 0 0 0 0 0 0 0 0 0 0 0 0 0 0 0 0 0 0 0 0 0 0 0 0 0 0 0 0 1 2 1 1 1 1 1 3 3 3 3
0 0 0 0 0 0 0 0 0 0 0 0 0 0 0 0 0 0 0 0 0 0 0 0 0 0 0 0 0 0 0 0 0 0 0 0 0 0 0 0 1 2 3 3
0 0 0 0 0 0 0 0 0 0 0 0 0 0 0 0 0 0 0 0 0 0 0 0 0 0 0 0 0 0 0 0 0 0 0 0 0 0 0 0 0 1 2 1
0 0 0 0 0 0 0 0 0 0 0 0 0 0 0 0 0 0 0 0 0 0 0 0 0 0 0 0 0 0 0 0 0 0 0 0 0 0 0 0 0 0 0 0
0 0 0 0 0 0 0 0 0 0 0 0 0 0 0 0 0 0 0 0 0 0 0 0 0 0 0 0 0 0 0 0 0 0 0 0 0 0 0 0 0 0 0 0
0 0 0 0 0 0 0 0 0 0 0 0 0 0 0 0 0 0 0 0 0 0 0 0 0 0 0 0 0 0 0 0 0 0 0 0 0 0 0 0 0 0 0 0
0 0 0 0 0 0 0 0 0 0 0 0 0 0 0 0 0 0 0 0 0 0 0 0 0 0 0 0 0 0 0 0 0 0 0 0 0 0 0 0 0 0 0 0
0 0 0 0 0 0 0 0 0 0 0 0 0 0 0 0 0 0 0 0 0 0 0 0 0 0 0 0 0 0 0 0 0 0 0 0 0 0 0 0 0 0 0 0
0 0 0 0 0 0 0 0 0 0 0 0 0 0 0 0 0 0 0 0 0 0 0 0 0 0 0 0 0 0 0 0 0 0 0 0 0 0 0 0 0 0 0 0
Wind_Speed
1 2 6 8 9 11 10 11 13 14 10 10 14 17 15 11 10 12 10 9 11 13 11 9 11 12 13 14 15 17 16 16 14 12 12 12 11 10 9 9 11 12 11 12
2 7 10 9 9 10 12 13 14 13 9 9 12 17 15 14 13 12 12 11 11 11 9 9 10 11 14 16 16 18 18 17 16 13 11 9 8 8 8 8 10 12 12 13
7 7 6 7 9 10 12 11 11 11 11 9 9 12 12 11 12 12 11 11 11 12 12 10 10 12 13 15 17 16 19 18 17 14 10 8 7 6 7 10 10 12 13 13
6 6 6 8 9 9 12 9 12 13 8 6 4 8 7 7 9 10 10 9 10 10 10 9 10 11 13 16 16 17 18 18 18 16 14 16 13 12 11 10 9 11 12 13
6 4 6 8 8 8 8 8 9 10 8 8 6 7 8 4 7 9 10 9 9 9 9 9 10 11 12 13 14 15 17 18 18 18 17 17 13 10 7 8 11 11 11 12
8 5 5 5 6 7 7 6 7 6 4 8 8 7 7 4 6 6 7 7 8 8 9 9 8 9 9 10 11 13 15 17 18 19 19 19 16 13 12 12 13 11 9 10
8 5 4 3 6 4 3 2 2 2 2 7 5 6 8 5 5 5 5 5 5 6 7 7 7 8 9 11 12 13 16 17 17 19 20 19 18 16 16 15 14 12 10 10
5 8 4 3 3 5 5 3 2 3 4 4 3 7 5 4 4 4 4 4 5 4 4 5 6 7 9 11 13 14 16 16 18 19 19 18 16 13 12 14 12 14 12 11
3 8 6 6 5 3 4 3 3 3 4 4 5 4 4 5 7 8 8 9 8 7 5 4 3 4 6 8 12 14 15 15 17 18 18 17 16 15 13 13 12 11 9 9
3 8 8 6 4 2 2 3 2 2 3 5 4 2 3 6 7 9 9 9 9 9 8 6 4 3 4 5 8 11 14 15 15 16 16 14 16 16 13 11 13 12 12 11
2 4 8 5 2 4 3 2 2 3 3 3 4 2 2 3 5 6 7 8 9 9 8 7 6 4 3 3 4 7 10 13 13 14 14 14 14 14 13 12 13 12 11 12
2 2 5 7 6 3 2 1 1 2 5 4 3 4 3 4 7 8 9 10 10 9 9 8 7 6 4 3 2 4 7 10 12 13 14 15 13 13 13 13 12 12 12 12
1 1 4 8 5 4 2 2 2 3 3 4 4 6 4 7 9 9 9 10 10 10 11 9 8 7 6 4 3 3 5 7 8 10 12 13 13 13 14 14 13 12 13 12
1 2 5 7 8 5 6 7 5 3 3 5 6 9 10 11 12 11 11 10 9 9 10 10 9 8 8 6 4 3 3 4 6 8 11 13 14 15 14 13 13 13 13 13
1 4 6 10 11 9 10 11 8 7 7 7 8 9 10 10 9 9 8 9 10 11 11 11 10 10 9 8 6 4 3 3 4 7 9 10 11 12 11 11 11 12 12 13
1 4 4 7 8 8 10 11 9 8 7 8 9 11 8 8 6 6 7 8 10 11 11 11 11 11 10 9 7 6 4 3 3 5 7 7 7 9 11 11 11 12 12 12
2 3 3 6 6 6 7 6 5 5 4 4 7 8 8 8 9 7 6 8 9 10 11 11 11 9 9 9 7 6 4 3 2 3 5 5 6 7 8 10 11 12 12 12
5 4 3 4 4 6 7 3 4 5 7 5 6 7 8 9 9 5 4 6 8 10 11 11 10 10 9 8 7 5 4 2 1 2 3 4 6 6 7 8 10 11 10 11
8 6 3 2 4 9 6 3 2 4 6 4 6 8 8 8 6 5 4 6 7 8 9 9 9 9 9 9 7 5 3 1 0 0 2 3 5 6 7 8 9 9 9 9
4 4 3 3 4 7 6 3 2 1 5 4 5 7 7 5 4 6 8 8 9 8 8 8 8 8 8 8 7 4 2 1 1 2 2 2 4 6 7 7 7 6 7 8
2 3 5 5 6 9 7 3 1 2 6 5 4 6 5 4 6 8 9 9 8 9 9 9 8 7 7 7 6 4 3 2 3 2 1 1 3 5 6 5 5 6 6 7
6 5 6 5 6 10 4 1 4 7 4 4 5 5 6 7 8 8 8 9 9 9 9 9 8 7 6 6 5 5 4 4 2 1 0 0 1 2 3 5 5 6 7 8
7 9 7 9 9 6 3 5 6 4 5 5 5 7 6 7 7 8 8 8 8 8 9 8 7 8 7 5 4 4 5 4 2 1 1 1 1 2 3 5 6 6 6 6
5 4 4 6 9 8 7 6 5 5 6 7 7 7 6 7 8 9 8 8 8 8 8 7 7 7 7 6 5 4 4 2 1 1 1 1 2 2 2 3 4 5 6 6
7 4 5 8 8 7 7 6 6 6 6 6 7 6 6 7 8 8 7 8 7 8 7 7 6 7 8 7 6 5 3 2 1 1 1 1 1 2 2 1 2 3 4 6
7 8 8 9 8 6 7 5 5 6 7 7 7 7 6 5 7 7 7 7 7 7 7 7 7 7 7 7 6 5 3 1 1 0 1 1 1 1 1 2 2 4 3 5
Wind_Direction
294 231 241 240 235 249 265 275 278 279 288 283 270 274 278 267 256 252 247 246 246 241 233 218 210 200 195 192 191 190 188 184 179 178 177 176 179 176 175 177 175 175 173 172
306 255 252 256 260 264 262 269 275 285 280 274 275 274 269 259 249 242 240 238 244 248 242 221 208 199 196 195 193 192 191 187 187 187 183 179 171 173 173 174 178 179 177 177
251 262 275 272 271 271 262 252 260 272 291 273 275 278 257 251 243 240 233 233 238 241 238 225 211 202 196 198 196 194 193 190 189 184 172 162 155 156 172 182 184 184 182 181
273 270 277 277 274 265 272 262 262 267 274 272 244 281 272 254 252 240 235 229 232 239 237 225 212 206 201 200 199 196 194 192 189 183 181 179 183 186 188 182 182 180 183 183
275 279 286 279 276 271 264 283 274 262 257 267 242 255 278 261 254 246 235 226 229 233 233 228 214 210 206 201 197 198 194 193 189 188 188 188 193 191 170 169 175 180 184 186
265 268 262 266 284 274 282 290 273 252 236 252 228 218 273 241 248 262 243 234 231 230 231 231 220 209 206 201 197 194 194 194 191 190 192 194 194 184 174 177 182 184 184 186
318 306 296 303 314 302 298 313 312 297 235 249 218 212 250 261 272 273 272 266 252 240 232 232 221 208 205 200 197 194 194 196 192 193 195 198 196 190 188 185 186 184 184 190
326 307 304 320 300 294 288 251 231 260 256 277 231 229 254 282 296 323 331 330 330 299 258 241 228 215 210 204 200 195 196 198 194 195 197 197 195 194 196 191 188 190 193 193
293 285 295 299 286 265 296 268 255 278 287 275 249 268 298 350 1 2 1 1 350 338 320 296 265 232 222 211 203 197 198 199 196 196 198 196 196 196 197 192 189 191 188 181
229 280 295 307 322 307 266 297 313 266 273 270 264 260 310 347 355 356 359 355 348 347 342 331 312 275 246 224 209 199 198 198 197 197 198 198 197 198 196 188 192 192 185 178
210 261 302 330 326 299 333 339 317 287 271 282 294 299 347 357 358 353 346 344 345 348 344 337 331 311 281 254 214 200 201 199 196 196 197 196 197 195 192 194 196 191 182 180
234 219 281 276 266 255 218 253 277 291 295 284 285 283 334 9 5 357 350 349 349 349 345 341 339 342 334 306 258 211 205 202 200 197 194 196 194 191 192 197 195 189 184 183
245 169 324 329 335 352 341 286 267 268 264 264 259 271 331 351 353 354 352 348 347 349 350 351 353 352 341 322 300 255 221 209 205 198 193 194 192 191 196 198 194 189 187 184
276 198 203 237 258 278 289 289 285 259 253 270 256 281 309 328 334 338 342 343 344 348 350 353 353 347 341 330 312 289 254 226 209 198 193 194 194 194 197 196 191 189 187 187
129 248 244 255 266 266 265 274 273 253 242 249 271 278 294 311 312 320 330 338 345 347 350 351 349 343 340 336 328 314 286 240 212 197 193 196 196 193 191 189 189 187 188 190
173 251 271 273 265 269 270 269 267 261 257 259 275 278 294 301 305 316 329 339 344 342 342 342 342 341 339 333 327 319 308 272 212 197 195 190 185 186 188 187 184 184 188 187
230 223 265 274 294 302 267 259 259 260 258 251 264 277 308 316 316 315 321 332 336 336 336 334 332 331 329 326 320 312 303 292 216 198 190 178 174 180 185 184 181 184 186 185
198 196 232 280 330 263 248 242 241 255 254 258 277 293 299 297 294 284 299 322 327 329 329 327 325 325 325 323 319 315 318 322 251 203 190 175 171 176 174 177 186 186 184 186
193 190 212 243 266 274 282 274 234 242 262 263 276 295 305 308 310 294 317 325 314 310 314 314 314 317 321 323 320 317 321 336 357 241 213 187 173 171 172 180 186 182 180 184
171 183 198 213 246 259 256 269 274 208 271 281 285 294 303 324 319 295 320 319 311 311 315 316 319 322 325 324 322 317 322 330 291 265 247 203 180 176 181 184 180 175 175 180
164 190 210 216 238 262 258 278 64 182 258 287 285 285 293 275 260 288 308 310 312 315 316 318 321 323 320 323 327 323 322 307 294 292 277 200 183 182 177 171 166 165 164 165
191 193 208 193 219 252 249 163 197 233 263 282 286 284 281 278 284 296 303 307 314 319 319 321 322 321 323 329 332 327 312 310 324 342 47 131 167 157 150 153 157 158 160 164
208 199 195 200 222 244 236 226 245 248 266 277 279 285 285 287 289 296 299 304 309 313 316 318 318 319 325 329 329 316 313 326 354 36 62 84 116 137 149 155 156 156 161 165
251 202 203 247 259 261 265 265 267 259 260 272 276 280 283 282 287 292 296 303 310 311 311 316 320 321 322 326 325 313 315 329 15 56 75 101 121 118 124 142 156 162 166 165
223 199 216 247 265 283 273 259 266 278 283 286 285 278 276 281 286 288 293 298 302 304 308 314 315 313 312 318 318 318 321 336 32 65 102 106 107 111 112 114 151 168 179 175
198 200 210 238 233 232 257 264 274 281 285 287 289 291 289 281 285 291 294 294 298 301 306 310 310 308 308 311 311 312 311 306 122 121 141 137 127 118 119 114 76 65 118 137